Regional Weather Roundup
Issued by NWS Grand Forks, ND

Home | Current Version | Previous Version | Graphics & Text | Print | Product List | Glossary On
Versions: 1 2 3 4 5 6 7 8 9 10 11 12 13 14 15 16 17 18 19 20 21 22 23 24 25 26 27 28 29 30 31 32 33 34 35 36 37 38 39 40 41 42 43 44 45 46 47 48 49 50
000
ASUS43 KFGF 251110
RWRFGF
PRAIRIE TO PINES  WEATHER ROUNDUP
NATIONAL WEATHER SERVICE EASTERN NORTH DAKOTA/GRAND FORKS ND
600 AM CDT MON JUL 25 2016

 **SATELLITE DATA USED TO AUGMENT SKY COVER AT AUTOMATED STATIONS**
 *****  WEATHER ACROSS EASTERN NORTH DAKOTA  *****

CITY           SKY/WX    TMP DP  RH WIND       PRES   REMARKS
GRAND FORKS    PTCLDY    59  56  89 W3        29.99R
GRAND FRKS AFB CLEAR     60  57  92 W5        30.00R
GRAND FRKS NWS   N/A     57 N/A N/A MISG        N/A
DEVILS LAKE    CLEAR     61  59  93 W5        30.03S
FARGO          PTCLDY    57  55  93 CALM      30.02R
WAHPETON ARPT  SUNNY     57  54  88 W5        30.04R
$$

 ***** WEATHER ACROSS CENTRAL AND WESTERN NORTH DAKOTA  *****

CITY           SKY/WX    TMP DP  RH WIND       PRES   REMARKS
BISMARCK       CLEAR     59  58  96 E5        30.02F
MINOT          CLEAR     61  58  90 CALM      29.99F
JAMESTOWN      CLEAR     58  57  97 CALM      30.03S
MINOT AFB      CLEAR     56  55  94 SE3       29.98F
GARRISON         N/A     59  58  96 E5        30.00S
WILLISTON      CLEAR     60  55  83 N3        29.97S
DICKINSON      CLEAR     56  50  80 S12       29.99S
HETTINGER      CLEAR     62  50  64 SE3       30.03S
$$

 *****  OTHER AIRPORT OBSERVATIONS IN OUR AREA  *****

CITY           SKY/WX    TMP DP  RH WIND       PRES   REMARKS
WALHALLA       NOT AVBL
GRAFTON AIRPOR FAIR      59  59 100 W6        30.01R
VALLEY CITY AR   N/A     57  57 100 CALM      30.06S
CANDO          NOT AVBL
CAVALIER APRT  FAIR      61  57  88 W8        29.99R
GWINNER        FAIR      57  57 100 SW3       30.05R
SHEYENNE NWR     N/A     56  55  97 CALM      29.95S
ROLLA          FAIR      57  55  94 W3        30.04S
 ***** THE ABOVE OBSERVATIONS ARE NON NWS ARE NOT QUALITY
       CONTROLLED AND MAY MIS-REPORT RAIN FOR SNOW...
$$

  *****  WEATHER ACROSS NORTHERN MINNESOTA  *****

CITY           SKY/WX    TMP DP  RH WIND       PRES   REMARKS
FLAG ISLAND    CLEAR     63  59  88 W12       29.95R
WARROAD        NOT AVBL
ROSEAU         CLEAR     61  55  82 SW3       29.98R
HALLOCK        CLEAR     57  55  94 CALM      29.98R
THF RVR FALLS  CLEAR     59  58  96 CALM      30.01S FOG
BAUDETTE       CLEAR     56  56 100 CALM      29.97R FOG
WASKISH        CLEAR     66  63  88 NW7       29.99R
CROOKSTON      CLEAR     61  57  88 CALM      30.01R
STEPHEN NDAWN    N/A     61  59  94 SW2         N/A
GREENBUSH NDAW   N/A     55  55 100 SW2         N/A
$$
  *****  WEATHER ACROSS CENTRAL AND WEST MINNESOTA  *****

CITY           SKY/WX    TMP DP  RH WIND       PRES   REMARKS
FOSSTON        CLEAR     54  54 100 S7        30.03R
BEMIDJI        CLEAR     59  57  94 W5        30.02R
PARK RAPIDS    CLEAR     58  56  93 W3        30.03R
ELBOW LAKE     FAIR      59  58  96 W3        30.04S
WADENA         CLEAR     59  57  94 W3        30.03S
DETROIT LAKES  CLEAR     63  57  82 CALM      30.05R
MOORHEAD       PTCLDY    61  57  88 CALM      30.03R
FERGUS FALLS   CLEAR     61  61 100 CALM      30.05S
MORRIS MN      CLEAR     61  59  94 NW3       30.04S
STAPLES        CLEAR     57  55  94 W3        30.02S
$$
  *****  WEATHER ELSEWHERE ACROSS MINNESOTA  *****

CITY           SKY/WX    TMP DP  RH WIND       PRES   REMARKS
DULUTH         CLEAR     61  60  97 NW8       29.98R
INTRNTL FALLS  CLEAR     57  56  96 SW3       29.97R
ELY            CLEAR     57  55  94 CALM      29.96R
CLOQUET        CLEAR     61  57  88 W7        29.99R
WHEATON        CLEAR     64  61  88 CALM      30.06R
BRAINERD       CLEAR     61  59  93 CALM      30.02R
HIBBING        FOG       52  52 100 CALM      29.98R VSB<1/4
ALEXANDRIA     CLEAR     62  58  86 CALM      30.06R
SAINT CLOUD    CLEAR     59  59 100 CALM      30.02R
MINNEAPOLIS    CLEAR     67  60  78 CALM      30.02R
$$

  *****  WEATHER ACROSS SOUTH DAKOTA  *****

CITY           SKY/WX    TMP DP  RH WIND       PRES   REMARKS
SIOUX FALLS    PTCLDY    59  57  93 CALM      30.09R
BROOKINGS      CLEAR     60  58  92 SW3       30.09R
WATERTOWN      CLEAR     61  57  87 CALM      30.08R
HURON          CLEAR     60  58  92 SE3       30.06R
SISSETON         N/A     57  55  93 CALM      30.03S
ABERDEEN       CLEAR     56  54  93 S6        30.05R
MITCHELL       CLEAR     61  59  93 CALM      30.08R
PIERRE         PTCLDY    69  55  60 S6        30.05R
MOBRIDGE       CLEAR     67  58  72 SE9       30.01F
RAPID CITY     CLEAR     65  55  70 SE12      30.08S
$$

  *****  SOME WEATHER IN NEARBY STATES *****

CITY           SKY/WX    TMP DP  RH WIND       PRES   REMARKS
GLASGOW MT     CLEAR     57  51  80 NE6       29.97S
GREAT FALLS MT CLEAR     55  42  61 S6        30.07R
CHEYENNE WY    CLEAR     55  53  93 SW7       30.24F
SCOTTSBLUFF NE CLEAR     58  55  90 SE9       30.16F
OMAHA NE       PTCLDY    65  62  90 NW7       30.09R
DES MOINES IA  PTCLDY    70  64  81 N8        30.07R
DAVENPORT IA   CLOUDY    67  65  93 NW6       30.03R
CHICAGO IL     MOCLDY    73  69  87 W7        29.96R
EAU CLAIRE WI  CLEAR     64  61  90 S5        29.99R
LA CROSSE WI   CLEAR     68  64  87 CALM      30.01R
$$

  *****  SOME NATIONAL WEATHER *****

CITY           SKY/WX    TMP DP  RH WIND       PRES   REMARKS
LA GUARDIA NY  CLOUDY    82  67  60 S9        29.94R
RALEIGH NC     PTCLDY    78  75  90 SW7       30.05S
ATLANTA GA     PTCLDY    77  70  79 CALM      30.08R
NEW ORLEANS LA MOCLDY    80  76  87 NW5       29.95R
OKLAHOMA CITY  CLOUDY    80  70  71 W6        30.01R
ALBUQUERQUE NM CLOUDY    69  57  65 E6        30.24R
SALT LAKE CITY FAIR      76  39  26 S9        30.03F
LOS ANGELES CA FAIR      70  65  84 CALM      29.91F
BOISE ID       FAIR      66  36  32 SE10      29.99R
SEATTLE WA     FAIR      61  56  83 CALM      30.05R
$$

*** WEATHER ACROSS MANITOBA...SASKATCHEWAN AND ONTARIO ***
                ***ONTARIO***

CITY           SKY/WX    TMP DP  RH WIND       PRES   REMARKS
GERALDTON      MOCLDY    63  61  94 W6        29.73R
THUNDER BAY    PTCLDY    66  57  72 W10       29.83R
SIOUX LOOKOUT  MOCLDY    61  59  94 W3        29.89R
TORONTO        MOCLDY    73  72  94 SE3       29.82F
BIG TROUT LK   LGT RAIN  57  55  94 NW13G20   29.69  FOG
PICKLE LAKE    PTCLDY    61  57  88 W12       29.79
DRYDEN         CLEAR     57  55  94 W9        29.92R
KENORA         PTCLDY    61  59  94 W8        29.95R
$$
                *** MANITOBA***

CITY           SKY/WX    TMP DP  RH WIND       PRES   REMARKS
BRANDON        CLEAR     50  50 100 NW6       30.00R
DAUPHIN        CLEAR     61  55  82 SW10      29.92S
ISLAND LAKE    PTCLDY    61  59  94 SW5       29.80S
PILOT MOUND      N/A     54  52  94 SW3         N/A
THE PAS        MOCLDY    66  57  72 SW10      29.79R
THOMPSON       PTCLDY    59  57  94 VRB2      29.68F
WINNIPEG       CLEAR     61  59  94 W9        29.95R
LYNN LAKE      CLEAR     57  54  88 MISG      29.66R
CHURCHILL      FOG       46  46 100 S8        29.73F VSB 1/4
GILLAM         FOG       50  48  93 SE5       29.74F VSB 1/4
$$
                ***SASKATCHEWAN***

CITY           SKY/WX    TMP DP  RH WIND       PRES   REMARKS
ESTEVAN        PTCLDY    57  55  94 E7        29.99S
KINDERSLEY     PTCLDY    59  55  88 NE10      30.00R
LLOYDMINSTER   CLEAR     55  54  94 W9        29.99R
PRINCE ALBERT  LGT RAIN  61  59  94 SW7       29.91R
REGINA         PTCLDY    55  52  88 SE7       29.98S
YORKTON        CLEAR     61  55  82 SW10      29.95S
N. BATTLEFORD  PTCLDY    57  57 100 NW3       29.99R
LA RONGE       PTCLDY    59  52  77 W12G18    29.84R
SASKATOON      MOCLDY    57  57 100 W5        29.97S
SWIFT CURRENT  CLEAR     55  52  88 SW10      29.97R
$$
NOTE: THESE ARE AUTOMATED STATIONS WITH LIMITED QUALITY CONTROL
      "FAIR" INDICATES FEW OR NO CLOUDS BELOW 12,000 FEET WITH NO
      SIGNIFICANT WEATHER AND/OR OBSTRUCTIONS TO VISIBILITY.
      SKY/WX - SKY CONDITION AND SIGNIFICANT WEATHER.
      TMP - AIR TEMPERATURE.    DP   - DEWPOINT TEMPERATURE.
      RH  - RELATIVE HUMIDITY.  PRES - PRESSURE.
      HX  - HEAT INDEX.         WCI  - WIND CHILL INDEX.
$




USA.gov is the U.S. government's official web portal to all federal, state and local government web resources and services.